TimeEDT,TemperatureF,Dew PointF,Humidity,Sea Level PressureIn,VisibilityMPH,Wind Direction,Wind SpeedMPH,Gust SpeedMPH,PrecipitationIn,Events,Conditions,WindDirDegrees,DateUTC
12:53 AM,71.1,63.0,75,30.02,10.0,South,4.6,-,N/A,,Clear,170,2014-07-23 04:53:00
1:53 AM,70.0,64.0,81,30.01,10.0,SSE,3.5,-,N/A,,Clear,150,2014-07-23 05:53:00
2:53 AM,70.0,64.0,81,29.99,10.0,SSE,3.5,-,N/A,,Clear,160,2014-07-23 06:53:00
3:53 AM,70.0,64.0,81,29.98,10.0,SSE,3.5,-,N/A,,Clear,160,2014-07-23 07:53:00
4:53 AM,69.1,64.0,84,29.97,10.0,South,4.6,-,N/A,,Clear,170,2014-07-23 08:53:00
5:53 AM,69.1,64.0,84,29.96,10.0,SSE,3.5,-,N/A,,Clear,160,2014-07-23 09:53:00
6:53 AM,70.0,64.0,81,29.97,10.0,SSE,3.5,-,N/A,,Clear,150,2014-07-23 10:53:00
7:53 AM,73.9,64.9,73,29.97,10.0,South,8.1,-,N/A,,Clear,180,2014-07-23 11:53:00
8:53 AM,77.0,66.0,69,29.96,10.0,South,9.2,-,N/A,,Partly Cloudy,190,2014-07-23 12:53:00
9:53 AM,79.0,66.9,66,29.94,10.0,SSW,8.1,-,N/A,,Clear,200,2014-07-23 13:53:00
10:53 AM,82.0,68.0,62,29.92,10.0,South,9.2,-,N/A,,Clear,170,2014-07-23 14:53:00
11:53 AM,84.0,69.1,61,29.89,10.0,South,12.7,-,N/A,,Clear,180,2014-07-23 15:53:00
12:53 PM,87.1,71.1,59,29.87,10.0,South,11.5,18.4,N/A,,Clear,180,2014-07-23 16:53:00
1:53 PM,87.1,71.1,59,29.85,10.0,South,10.4,-,N/A,,Scattered Clouds,180,2014-07-23 17:53:00
2:53 PM,88.0,72.0,59,29.83,10.0,South,15.0,-,N/A,,Clear,170,2014-07-23 18:53:00
3:53 PM,87.1,71.1,59,29.81,10.0,SSW,15.0,21.9,N/A,,Clear,200,2014-07-23 19:53:00
4:53 PM,86.0,72.0,63,29.79,10.0,South,11.5,20.7,N/A,,Mostly Cloudy,170,2014-07-23 20:53:00
5:53 PM,82.9,72.0,69,29.78,10.0,South,12.7,-,N/A,,Clear,190,2014-07-23 21:53:00
6:53 PM,81.0,70.0,69,29.78,10.0,South,11.5,-,N/A,,Clear,180,2014-07-23 22:53:00
7:53 PM,79.0,70.0,74,29.78,10.0,South,10.4,-,N/A,,Clear,180,2014-07-23 23:53:00
8:53 PM,78.1,69.1,74,29.79,10.0,South,8.1,-,N/A,,Clear,170,2014-07-24 00:53:00
9:53 PM,77.0,69.1,76,29.84,10.0,NW,5.8,-,0.00,Rain,Light Rain,320,2014-07-24 01:53:00
10:15 PM,73.0,69.1,87,29.86,1.8,Calm,Calm,-,0.14,Rain,Heavy Rain,0,2014-07-24 02:15:00
10:34 PM,72.0,68.0,87,29.85,3.0,Calm,Calm,-,0.23,Rain,Rain,0,2014-07-24 02:34:00
10:53 PM,72.0,70.0,93,29.83,5.0,SSW,5.8,-,0.26,Rain,Light Rain,200,2014-07-24 02:53:00
11:53 PM,71.1,68.0,90,29.80,10.0,West,3.5,-,0.01,,Clear,260,2014-07-24 03:53:00